{"data":{"norad_id":57179,"intl_designator":"2023-091P","name":"2023-091P","alt_names":[],"object_type":"PAYLOAD","status":"ACTIVE","operator":null,"country":"CIS","launch_date":"2023-06-27","launch_site_code":"VOSTO","launch_vehicle":null,"mission":null,"orbit_class":"UNKNOWN","rcs_meters":null,"size_class":null,"mass_kg":null,"dimensions":null,"purposes":[],"wikipedia_slug":null,"has_3d_model":false,"image_url":null,"decayed_at":null,"tle_current":{"epoch":"2026-05-25T04:31:02.464608Z","epoch_age_seconds":62807,"freshness":"FRESH","line1":"1 57179U 23091P   26145.18822297  .00003753  00000+0  19690-3 0  9996","line2":"2 57179  97.5108 201.4060 0014446 198.9152 161.1546 15.16278569160302","mean_motion":15.16278569,"eccentricity":0.0014446,"inclination_deg":97.5108,"raan_deg":201.406,"arg_perigee_deg":198.9152,"mean_anomaly_deg":161.1546,"bstar":0.0001969,"rev_number":16030,"period_min":94.969356518024,"perigee_km":507.13880290456,"apogee_km":527.06052066779,"semimajor_km":6895.2366617862,"source":"CELESTRAK","updated_at":"2026-05-25T13:37:59.908478Z"}}}